Weather History for Osceola Municipal, IA

Change the Weather History Date:

Tuesday, December 24, 2013

  Actual Average (KLWD) Record (KLWD)
Temperature  
Mean Temperature -2 °F 25 °F  
Max Temperature 18 °F 33 °F 57 °F (1982)
Min Temperature -21 °F 17 °F -19 °F (1983)
Degree Days  
Heating Degree Days 66 40  
Month to date heating degree days 898  
Since 1 July heating degree days 2146  
Cooling Degree Days 0 0  
Month to date cooling degree days 0  
Year to date cooling degree days 946  
Moisture  
Dew Point -5 °F    
Average Humidity 74    
Maximum Humidity 93    
Minimum Humidity 62    
Precipitation  
Precipitation 0.00 in 0.04 in 0.84 in (1965)
Month to date precipitation 1.20  
Sea Level Pressure  
Sea Level Pressure 30.35 in    
Wind  
Wind Speed 7 mph (SSE)    
Max Wind Speed 17 mph    
Max Gust Speed 21 mph    
Visibility 9 miles    
Events Snow    
T = Trace of Precipitation, MM = Missing Value Source: NWS Daily Summary

Daily Weather History Graph

Daily Weather History Graph

Search for Another Location

Airport:

Trip Planner

Search our weather history database for the weather conditions in past years. The results will help you decide how hot, cold, wet, or windy it might be!

Date:

Astronomy

Dec. 24, 2013 Rise Set
Actual Time 7:37 AM CST 4:51 PM CST
Civil Twilight 7:06 AM CST 5:22 PM CST
Nautical Twilight 6:31 AM CST 5:57 PM CST
Astronomical Twilight 5:58 AM CST 6:30 PM CST
Moon No Moon Rise 11:29 AM CST (12/24)
Length of Visible Light 10h 15m
Length of Day
9h 13m
Waning Gibbous, 58% of the Moon is Illuminated
Dec 24
Waning Gibbous
Dec 25
Last Quarter
Jan 1
New
Jan 7
First Quarter
Jan 15
Full

Hourly Weather History & Observations

Time (CST) Temp. Windchill Dew Point Humidity Pressure Visibility Wind Dir Wind Speed Gust Speed Precip Events Conditions
12:15 AM -10.3 °F -25.4 °F -18.2 °F 68% 30.53 in 10.0 mi West 6.9 mph - N/A   Clear
12:35 AM -10.3 °F -25.4 °F -19.1 °F 65% 30.53 in 10.0 mi WSW 6.9 mph - N/A   Clear
12:55 AM -11.6 °F -23.4 °F -19.5 °F 68% 30.52 in 10.0 mi West 4.6 mph - N/A   Clear
1:15 AM -10.5 °F -24.0 °F -18.8 °F 67% 30.53 in 10.0 mi West 5.8 mph - N/A   Clear
1:35 AM -10.3 °F -21.9 °F -18.6 °F 67% 30.52 in 10.0 mi West 4.6 mph - N/A   Clear
1:55 AM -10.1 °F -23.6 °F -18.4 °F 67% 30.52 in 10.0 mi WSW 5.8 mph - N/A   Clear
2:15 AM -14.4 °F -30.3 °F -20.7 °F 73% 30.52 in 10.0 mi SW 6.9 mph - N/A   Clear
2:35 AM -13.2 °F -28.8 °F -19.5 °F 73% 30.52 in 10.0 mi SW 6.9 mph - N/A   Clear
2:55 AM -13.0 °F -25.1 °F -19.5 °F 73% 30.51 in 10.0 mi WSW 4.6 mph - N/A   Clear
3:15 AM -17.1 °F -27.4 °F -22.4 °F 77% 30.51 in 10.0 mi SW 3.5 mph - N/A   Clear
3:35 AM -16.1 °F -26.2 °F -21.1 °F 78% 30.50 in 10.0 mi West 3.5 mph - N/A   Clear
3:55 AM -17.1 °F - -22.4 °F 77% 30.50 in 10.0 mi Calm Calm - N/A   Clear
4:15 AM -20.9 °F - -26.3 °F 76% 30.48 in 10.0 mi Calm Calm - N/A   Clear
4:35 AM -14.4 °F - -19.1 °F 79% 30.48 in 10.0 mi Calm Calm - N/A   Clear
4:55 AM -19.5 °F - -24.9 °F 76% 30.48 in 10.0 mi Calm Calm - N/A   Clear
5:15 AM -21.1 °F -32.0 °F -27.0 °F 74% 30.46 in 10.0 mi East 3.5 mph - N/A   Clear
5:35 AM -19.7 °F -38.1 °F -25.1 °F 76% 30.48 in 10.0 mi South 8.1 mph - N/A   Clear
5:55 AM -19.5 °F - -25.1 °F 76% 30.46 in 10.0 mi Calm Calm - N/A   Clear
6:15 AM -19.1 °F -32.2 °F -24.5 °F 76% 30.47 in 10.0 mi South 4.6 mph - N/A   Clear
6:35 AM -19.5 °F -32.6 °F -25.4 °F 74% 30.45 in 10.0 mi South 4.6 mph - N/A   Clear
6:55 AM -17.5 °F -34.0 °F -22.4 °F 79% 30.47 in 10.0 mi South 6.9 mph - N/A   Clear
7:15 AM -17.3 °F -33.8 °F -22.7 °F 76% 30.46 in 10.0 mi South 6.9 mph - N/A   Clear
7:35 AM -18.4 °F -35.1 °F -24.2 °F 75% 30.45 in 10.0 mi SSE 6.9 mph - N/A   Clear
7:55 AM -15.7 °F -33.3 °F -21.1 °F 77% 30.45 in 10.0 mi SSE 8.1 mph - N/A   Clear
8:15 AM -14.3 °F -31.5 °F -19.3 °F 78% 30.45 in 10.0 mi SSE 8.1 mph - N/A   Clear
8:35 AM -12.1 °F -28.9 °F -17.0 °F 79% 30.45 in 10.0 mi SSE 8.1 mph - N/A   Clear
8:55 AM -10.1 °F -25.1 °F -14.8 °F 80% 30.45 in 10.0 mi SSE 6.9 mph - N/A   Clear
9:15 AM -7.4 °F -24.4 °F -12.8 °F 77% 30.45 in 10.0 mi SSE 9.2 mph - N/A   Clear
9:35 AM -4.0 °F -21.2 °F -12.1 °F 68% 30.45 in 10.0 mi SSE 10.4 mph - N/A   Clear
9:55 AM -2.0 °F -17.7 °F -10.7 °F 67% 30.44 in 10.0 mi SSE 9.2 mph - N/A   Clear
10:15 AM 0.7 °F -16.2 °F -9.0 °F 64% 30.44 in 10.0 mi SSE 11.5 mph - N/A   Clear
10:35 AM 3.2 °F -11.3 °F -6.9 °F 63% 30.43 in 10.0 mi SE 9.2 mph - N/A   Mostly Cloudy
10:55 AM 3.2 °F -11.3 °F -6.5 °F 64% 30.43 in 10.0 mi SSE 9.2 mph - N/A   Overcast
11:15 AM 4.5 °F -9.8 °F -4.9 °F 65% 30.42 in 10.0 mi SE 9.2 mph - N/A   Overcast
11:35 AM 5.9 °F -9.7 °F -3.5 °F 65% 30.40 in 10.0 mi SE 11.5 mph - N/A   Overcast
11:55 AM 7.2 °F -7.3 °F -2.7 °F 64% 30.38 in 10.0 mi SE 10.4 mph - N/A   Overcast
12:15 PM 8.1 °F -6.2 °F -2.4 °F 62% 30.38 in 10.0 mi SSE 10.4 mph - N/A   Mostly Cloudy
12:35 PM 8.4 °F -7.3 °F -2.0 °F 63% 30.35 in 10.0 mi SSE 12.7 mph - N/A   Mostly Cloudy
12:55 PM 8.6 °F -7.7 °F -1.7 °F 63% 30.34 in 10.0 mi SE 13.8 mph - N/A   Overcast
1:15 PM 9.0 °F -7.9 °F -1.1 °F 64% 30.32 in 10.0 mi SE 15.0 mph - N/A   Overcast
1:35 PM 9.1 °F -8.2 °F -0.9 °F 64% 30.30 in 10.0 mi SE 16.1 mph - N/A   Overcast
1:55 PM 10.0 °F -5.9 °F -0.0 °F 64% 30.29 in 10.0 mi SE 13.8 mph - N/A   Overcast
2:15 PM 10.4 °F -4.8 °F 0.5 °F 64% 30.28 in 10.0 mi SE 12.7 mph - N/A   Overcast
2:35 PM 10.4 °F -4.8 °F 1.0 °F 66% 30.26 in 10.0 mi SE 12.7 mph - N/A   Mostly Cloudy
2:55 PM 10.8 °F -5.0 °F 1.6 °F 67% 30.25 in 10.0 mi SE 13.8 mph - N/A   Mostly Cloudy
3:15 PM 11.1 °F -5.1 °F 2.1 °F 67% 30.23 in 10.0 mi SE 15.0 mph 19.6 mph N/A   Overcast
3:35 PM 11.3 °F -5.5 °F 2.8 °F 69% 30.22 in 7.0 mi SE 16.1 mph - N/A   Overcast
3:55 PM 11.8 °F -4.2 °F 3.7 °F 70% 30.21 in 7.0 mi SE 15.0 mph - N/A Snow Light Snow
4:15 PM 12.2 °F -4.8 °F 3.9 °F 69% 30.21 in 10.0 mi SE 17.3 mph 20.7 mph N/A   Overcast
4:35 PM 12.6 °F -3.3 °F 4.6 °F 71% 30.21 in 10.0 mi SE 15.0 mph - N/A   Overcast
4:55 PM 12.9 °F -1.6 °F 5.0 °F 71% 30.21 in 10.0 mi SE 12.7 mph - N/A   Overcast
5:15 PM 12.9 °F -2.2 °F 5.0 °F 71% 30.21 in 10.0 mi SE 13.8 mph - N/A   Overcast
5:35 PM 13.1 °F -1.4 °F 5.7 °F 72% 30.20 in 10.0 mi SE 12.7 mph - N/A   Overcast
5:55 PM 13.1 °F 0.9 °F 5.9 °F 73% 30.22 in 10.0 mi SSE 9.2 mph - N/A   Mostly Cloudy
6:15 PM 13.8 °F 1.8 °F 6.8 °F 74% 30.22 in 10.0 mi South 9.2 mph - N/A   Overcast
6:35 PM 14.0 °F 2.9 °F 7.2 °F 74% 30.22 in 10.0 mi SSE 8.1 mph - N/A   Overcast
6:55 PM 14.4 °F 4.3 °F 7.7 °F 75% 30.23 in 10.0 mi South 6.9 mph - N/A   Overcast
7:15 PM 14.5 °F 5.7 °F 7.7 °F 74% 30.23 in 10.0 mi South 5.8 mph - N/A   Overcast
7:35 PM 14.7 °F 4.8 °F 8.4 °F 76% 30.23 in 10.0 mi South 6.9 mph - N/A   Overcast
7:55 PM 14.9 °F 4.0 °F 9.1 °F 78% 30.22 in 10.0 mi SSE 8.1 mph - N/A   Overcast
8:15 PM 14.9 °F 4.0 °F 9.5 °F 79% 30.22 in 10.0 mi South 8.1 mph - N/A   Overcast
8:35 PM 15.3 °F 3.5 °F 10.8 °F 82% 30.22 in 10.0 mi South 9.2 mph - N/A   Overcast
8:55 PM 15.4 °F 3.8 °F 12.2 °F 87% 30.22 in 7.0 mi South 9.2 mph - N/A   Overcast
9:15 PM 15.6 °F 4.9 °F 13.5 °F 91% 30.22 in 5.0 mi South 8.1 mph - N/A   Overcast
9:35 PM 15.8 °F 4.2 °F 14.0 °F 93% 30.20 in 5.0 mi South 9.2 mph - N/A   Overcast
9:55 PM 16.5 °F 4.3 °F 14.7 °F 93% 30.20 in 5.0 mi South 10.4 mph - N/A   Overcast
10:15 PM 16.9 °F 5.5 °F 15.1 °F 93% 30.20 in 5.0 mi South 9.2 mph - N/A   Overcast
10:35 PM 17.4 °F 5.4 °F 15.6 °F 93% 30.19 in 5.0 mi South 10.4 mph - N/A   Overcast
10:55 PM 17.6 °F 7.3 °F 15.8 °F 93% 30.19 in 5.0 mi South 8.1 mph - N/A   Overcast
11:15 PM 18.1 °F 7.9 °F 16.3 °F 93% 30.19 in 5.0 mi South 8.1 mph - N/A   Overcast
11:35 PM 18.3 °F 9.1 °F 16.5 °F 93% 30.18 in 7.0 mi South 6.9 mph - N/A   Overcast
11:55 PM 18.9 °F 8.8 °F 17.1 °F 93% 30.18 in 7.0 mi South 8.1 mph - N/A   Overcast